sat.trackr.live / text

‹ back to catalog

STARLINK-36407

NORAD 67612 · 2026-018Z

PAYLOAD ACTIVE UNKNOWN

§ Identity

Operator
Country
US
Launch date
2026-01-29
Launch site
AFWTR
Launch vehicle
Mass (kg)
RCS (m²)

Purposes: comms

External: N2YO · Heavens-Above · Gunter

§ Orbital elements

Epoch: 2026-09-19T11:00:51.310080Z

Period
93.91 min
Inclination
97.2889°
Eccentricity
0.0000183
Mean motion
15.33447649 rev/d
Perigee alt
465.4 km
Apogee alt
465.7 km
Semi-major
6,843.7 km
B*
4.9012e-4
RAAN
325.9767°
Arg perigee
312.1552°
Mean anomaly
47.9675°
Rev number
3,708

§ Raw data

STARLINK-364071 67612U 26018Z   26262.45892720  .00015782  00000+0  49012-3 0  99952 67612  97.2889 325.9767 0000183 312.1552  47.9675 15.33447649 37089

JSON: /api/v1/satellites/67612 · /tle

For live sub-satellite position, see the globe view (requires WebGL).

§ Visibility from observer

Set your observer location to see the next 7 days of passes ≥ 10°. The values pass through the URL so the page stays shareable.

No JS? Fill the form by hand. The geolocation button needs JavaScript.